Theta_e
298 298 299 299 299 299 299 299 298 298 298 296 298 303 307 308 309 309 307 305 306 306 307 308 308 308 309 309 309 309 309 309 309 308 308 308 308 308 308 308 308 308 308 308 307 307 307 306 306 307 307 307 308 309 309 309 308 308 309 309 311 312 312 312 311 311 311 312 312 313 313 313 313 313 314 314 315 315 314 315 316 315 313 313 313 313 315
298 298 299 299 299 299 299 299 298 298 297 296 298 303 307 307 309 309 308 306 306 307 307 308 308 308 309 309 309 310 310 309 309 308 308 308 308 308 309 309 309 309 308 308 308 308 307 307 306 307 307 308 309 309 309 309 308 309 309 310 310 311 311 312 311 311 312 312 312 312 313 313 312 313 314 314 315 315 316 316 316 315 313 313 313 313 316
298 298 298 298 299 299 299 299 298 298 296 296 299 303 305 307 309 310 309 307 307 307 307 307 306 307 307 308 309 310 310 310 310 309 309 308 308 308 309 309 309 309 308 308 308 308 308 309 308 307 308 308 309 309 309 309 309 309 310 310 310 311 311 312 312 311 312 312 312 312 312 313 313 313 313 314 314 315 315 315 314 314 314 313 313 314 317
299 298 298 298 299 299 299 298 299 299 296 297 301 304 306 308 309 308 309 308 308 308 308 307 306 306 306 307 309 310 310 311 311 310 310 308 307 307 308 309 310 309 309 309 308 308 308 309 309 308 308 308 308 309 309 309 309 310 310 311 311 311 312 313 312 312 312 312 312 312 313 312 313 313 313 313 314 315 316 314 313 314 315 314 314 316 318
299 299 297 297 298 299 299 298 299 299 297 298 302 304 307 308 308 307 307 307 308 309 309 308 307 306 307 307 309 310 310 311 311 311 311 308 305 306 306 308 309 310 310 309 310 309 308 309 310 310 310 309 308 309 309 309 310 310 310 311 311 312 312 313 313 313 312 312 313 313 313 313 313 313 313 313 314 315 316 314 314 316 315 314 317 318 317
300 299 298 297 297 298 299 298 299 299 299 299 302 305 307 306 306 307 306 305 307 308 308 308 307 306 307 307 309 310 311 311 311 311 312 310 306 306 307 307 308 310 310 310 311 311 310 311 312 312 312 311 309 309 308 308 309 310 310 311 312 312 312 313 313 313 313 313 313 313 313 313 313 313 314 314 314 314 315 315 316 317 315 314 318 319 318
300 299 298 297 297 298 298 298 299 299 300 300 301 303 304 304 304 306 304 303 306 306 307 308 307 307 309 309 310 311 311 311 311 311 312 313 310 308 309 309 308 308 309 310 311 312 312 313 313 313 314 314 312 310 309 309 309 310 310 311 312 312 312 312 313 313 313 313 313 313 313 313 313 313 314 314 314 314 314 315 316 317 317 317 319 319 319
300 299 299 298 297 297 298 299 299 299 300 301 301 301 301 301 302 303 302 302 305 307 308 308 308 309 310 309 310 311 311 311 312 312 312 314 313 311 310 311 309 307 308 310 311 312 313 314 315 315 315 315 314 312 310 308 309 309 310 311 312 312 312 313 313 313 313 313 313 313 313 313 313 313 313 314 314 314 314 315 316 317 317 317 318 318 319
299 299 299 299 298 297 298 298 298 298 299 301 301 300 299 299 300 300 300 302 305 308 309 309 309 309 308 308 309 310 310 311 312 312 313 314 315 314 313 314 313 308 307 308 310 311 312 314 315 316 315 315 314 314 312 310 309 309 310 312 313 312 313 314 313 313 313 313 314 314 314 314 314 314 314 314 314 315 315 315 316 316 316 317 317 316 318
300 299 300 299 298 297 298 298 298 298 299 300 300 300 299 299 299 299 300 302 305 307 309 309 309 309 309 309 309 310 310 311 312 313 313 314 315 315 314 316 315 312 309 310 311 312 313 314 315 315 314 315 315 314 315 314 311 309 310 312 313 313 313 314 313 313 314 315 315 315 315 315 315 315 315 315 315 315 316 316 316 317 317 316 316 316 318
300 300 300 300 299 298 297 298 298 298 299 300 300 299 298 298 298 299 300 302 305 307 308 308 308 309 310 310 310 309 309 311 313 313 313 314 315 315 316 316 317 316 315 315 315 316 316 316 316 315 315 315 316 316 315 315 314 312 311 311 313 314 314 314 314 313 314 316 317 317 316 315 316 316 316 317 316 316 316 316 316 317 316 316 317 318 318
300 300 299 299 299 298 298 298 298 299 299 299 300 299 298 298 298 299 300 300 303 306 306 307 308 309 310 310 309 308 309 311 312 313 314 315 316 316 317 317 317 316 316 316 316 316 317 317 317 316 316 316 316 316 314 314 313 313 312 312 313 314 313 313 314 314 315 316 317 317 317 316 318 318 317 317 316 316 317 317 317 316 316 317 317 317 318
300 300 299 299 299 299 298 298 298 298 298 299 300 299 299 297 297 299 299 299 302 304 305 305 307 309 308 307 307 309 311 311 311 312 314 316 317 317 317 316 316 316 315 316 317 316 316 317 316 315 315 315 315 314 313 312 312 313 313 313 313 313 314 314 314 315 316 316 316 316 318 319 320 319 317 316 317 317 316 316 317 317 317 317 317 317 317
301 300 300 299 299 299 298 298 298 298 298 299 300 300 299 298 298 298 298 299 300 302 303 305 306 307 306 306 307 310 311 310 310 311 313 315 316 316 316 315 314 315 315 317 318 317 315 315 314 314 316 315 314 313 312 312 312 312 313 313 313 313 314 314 315 316 317 316 315 316 318 319 318 319 319 317 317 318 316 316 316 317 317 317 316 317 317
301 301 300 300 299 298 298 298 298 298 298 298 300 300 299 299 298 297 298 298 298 301 304 304 304 305 305 307 309 309 309 308 308 310 312 314 314 314 314 313 314 315 316 318 317 316 315 314 313 313 314 313 312 312 312 311 312 312 312 313 313 314 315 315 315 316 316 316 316 316 316 317 318 320 321 320 320 320 318 316 316 317 318 318 317 318 317
301 301 301 300 299 298 298 299 299 298 298 298 299 300 300 299 299 298 298 298 298 301 304 303 303 304 306 307 308 307 306 305 306 309 310 312 313 313 312 312 314 316 316 317 317 315 315 314 313 312 312 312 312 311 312 311 311 311 312 312 313 314 314 314 314 315 316 317 317 317 317 318 321 323 323 322 323 323 320 316 315 318 318 318 318 318 318
301 301 301 300 299 298 298 299 299 298 298 298 299 300 300 300 299 298 298 298 298 300 301 302 302 304 304 305 305 305 304 305 306 308 309 310 312 312 311 311 314 316 317 316 317 316 314 314 314 312 311 312 312 311 311 312 311 311 312 312 313 314 314 313 314 315 316 316 318 318 318 319 322 323 323 322 322 323 319 315 316 321 323 320 318 317 318
301 301 301 300 300 298 298 298 298 298 298 298 298 300 300 300 299 299 298 298 298 299 301 302 302 302 302 302 302 303 303 305 306 307 308 310 311 310 310 312 314 315 316 316 316 316 315 315 316 315 312 312 313 311 310 311 312 312 312 312 313 314 314 314 315 316 316 316 318 318 318 319 323 323 321 323 323 321 318 316 320 327 327 324 323 322 321
301 301 301 301 300 299 298 298 298 298 298 298 298 299 300 300 300 299 299 298 299 299 300 301 300 301 301 301 301 302 303 304 306 306 307 310 310 308 309 312 313 314 315 316 315 316 316 316 317 317 314 311 312 312 311 312 312 312 312 313 313 314 315 315 315 316 317 317 318 319 318 319 323 323 320 322 322 319 319 323 326 329 327 325 326 326 324
301 301 301 301 301 300 299 298 298 297 297 298 299 299 300 300 300 300 299 298 299 299 299 300 300 301 301 301 301 302 303 304 305 306 307 308 308 308 310 311 311 313 315 315 315 316 316 316 318 318 315 315 315 314 312 312 312 313 312 312 313 315 315 315 315 316 317 317 319 319 319 319 324 324 321 323 323 322 325 329 328 327 327 327 327 328 328
301 301 301 301 301 300 299 298 298 297 297 297 298 299 300 300 300 300 299 298 298 299 299 300 300 300 300 300 300 301 301 302 304 305 305 306 306 307 309 309 310 313 314 314 314 315 315 315 317 317 317 317 317 315 313 312 312 313 314 313 314 315 315 315 316 316 317 317 318 319 319 320 324 325 324 325 327 327 330 330 328 327 327 326 326 329 329
301 301 301 301 301 301 299 298 297 297 297 297 298 299 300 300 300 300 300 299 299 298 299 299 299 299 300 300 301 301 301 301 302 303 304 304 305 306 308 309 311 313 313 313 313 314 314 314 315 316 317 318 317 317 317 315 313 314 315 314 315 316 317 317 317 317 317 317 318 318 319 320 323 325 326 327 328 329 330 328 328 328 327 326 328 329 329
301 301 301 301 301 300 298 298 298 298 297 296 298 299 300 300 300 300 300 299 299 299 299 299 300 301 303 303 304 303 302 302 302 302 303 304 305 306 308 311 312 313 313 313 313 313 313 313 313 315 317 317 316 317 318 315 314 315 315 314 315 318 319 319 317 317 317 318 318 318 318 320 323 324 327 328 328 329 328 326 326 328 327 329 330 330 330
301 300 301 301 301 299 298 298 298 298 297 296 298 299 299 300 300 300 300 300 299 299 300 301 302 303 305 305 305 304 304 303 304 304 303 303 305 307 309 311 312 312 313 313 312 312 311 311 313 315 316 317 317 317 317 315 316 318 317 315 314 316 318 318 316 317 317 317 318 319 319 322 325 326 327 327 327 328 328 327 327 328 327 328 329 329 330
301 301 301 301 300 299 299 298 298 297 296 297 298 299 299 300 300 300 300 299 299 299 300 301 302 303 304 304 304 304 304 304 305 305 304 304 304 306 308 309 309 310 311 312 312 311 309 309 311 313 315 317 317 317 316 316 317 318 318 316 315 316 318 318 316 317 317 317 319 321 322 324 325 326 327 327 326 327 328 328 328 327 326 326 327 327 329
301 301 301 300 299 299 299 298 297 296 296 297 298 299 300 300 300 300 300 299 299 299 300 300 302 303 303 302 303 303 304 304 305 306 306 305 304 305 306 306 307 308 309 311 312 311 309 308 310 312 315 317 316 316 316 317 317 318 317 318 318 318 319 318 316 317 317 317 320 323 323 323 325 326 327 327 325 326 327 327 327 327 326 325 326 325 326
301 301 301 300 299 299 299 298 296 296 296 297 298 299 299 300 300 300 299 299 299 300 301 301 302 302 301 302 303 304 304 304 305 305 306 306 306 305 306 306 307 308 308 310 311 311 310 310 311 313 315 316 316 316 318 318 318 317 317 319 320 320 319 319 318 317 317 319 321 322 322 323 325 327 328 326 324 325 326 326 326 326 326 326 326 325 325
302 301 300 299 299 299 298 297 296 296 297 297 298 299 300 300 300 300 300 299 299 300 300 301 301 301 302 305 306 304 304 304 305 305 306 306 307 307 307 307 308 308 309 310 311 311 311 312 313 314 315 315 315 316 318 318 317 317 316 318 320 320 321 321 320 318 319 320 322 323 323 323 325 326 326 325 324 325 325 325 325 325 325 325 326 326 325
302 302 301 300 299 298 297 296 296 296 297 298 299 300 300 300 300 300 300 300 300 299 299 299 300 302 304 304 303 303 304 304 305 306 306 306 307 308 308 308 308 309 310 311 311 311 311 312 312 313 314 315 314 314 316 316 316 316 317 318 319 320 321 321 321 320 321 322 322 324 324 324 325 325 324 324 324 325 324 324 324 324 324 324 324 325 325
302 302 301 300 298 297 295 295 296 297 297 298 299 300 301 301 301 301 300 300 299 299 299 299 300 302 303 303 303 305 306 305 305 306 306 307 308 308 309 309 309 309 310 311 312 312 311 311 312 312 314 316 315 314 314 315 316 318 318 318 319 320 321 321 322 322 322 322 322 323 324 324 324 324 323 323 323 323 323 324 324 323 323 323 323 323 324
302 302 301 299 297 295 295 295 296 297 297 298 300 301 302 302 302 301 299 298 299 299 299 299 300 302 303 304 305 306 306 305 305 306 307 308 309 309 310 310 310 311 311 311 312 312 311 311 311 312 314 316 315 313 313 315 316 317 317 317 318 319 320 322 322 321 322 322 322 322 324 324 323 323 323 323 323 323 323 324 323 322 322 322 323 323 323
302 302 301 298 296 295 295 296 296 297 298 299 299 300 301 301 301 300 298 297 298 299 299 299 300 302 303 305 306 306 306 305 305 306 308 309 310 311 311 310 310 312 312 312 312 312 312 311 311 312 314 316 315 312 313 314 315 317 317 317 318 318 319 320 321 320 321 322 321 321 323 324 323 323 323 322 322 321 322 322 321 321 321 322 322 322 323
302 302 300 297 295 295 296 296 297 297 298 298 298 298 299 299 298 298 297 297 299 300 299 299 300 301 303 304 306 307 306 305 306 308 308 309 311 311 311 311 311 312 313 312 311 311 312 312 311 311 313 315 314 312 312 314 315 316 316 316 317 317 318 319 320 320 321 321 320 320 322 323 323 322 321 321 320 320 319 320 320 320 321 321 321 321 321
302 302 299 296 295 296 296 297 297 297 298 298 299 300 300 299 298 297 297 298 299 300 299 299 300 301 303 304 306 307 306 306 308 308 307 308 309 309 309 311 312 312 313 313 312 311 311 311 311 311 311 313 313 312 312 313 314 315 315 316 316 317 317 318 320 321 321 320 320 320 320 320 320 320 319 319 319 318 317 318 318 318 319 320 320 320 320
302 301 298 296 296 296 296 297 297 298 299 300 301 301 300 299 299 298 298 299 300 300 300 300 301 302 302 304 306 306 306 307 308 308 307 308 308 307 308 310 311 311 312 313 312 311 311 311 311 311 310 311 312 312 312 312 313 314 314 315 315 315 315 317 320 321 320 319 319 320 320 320 320 320 319 318 318 318 318 319 318 318 319 319 319 319 320
301 299 296 295 296 297 298 299 300 300 301 302 301 301 300 299 299 300 300 300 300 300 302 302 302 302 303 304 305 306 306 307 308 308 308 308 308 307 308 309 309 310 312 312 311 310 310 311 310 309 310 310 311 311 312 312 313 313 313 314 315 314 313 315 319 320 321 320 319 319 320 321 321 320 319 319 318 318 319 319 318 318 318 317 317 318 319
300 297 295 296 298 299 300 301 301 301 301 302 301 300 299 299 300 300 300 300 300 300 301 301 301 302 303 304 305 306 306 306 307 307 308 308 307 307 308 308 308 309 310 310 310 310 310 311 310 308 309 310 310 311 311 311 312 312 313 313 314 313 312 315 319 320 320 320 319 318 318 318 319 319 319 318 318 317 317 317 317 316 316 316 315 315 316
298 296 295 298 300 301 301 302 302 300 300 299 298 298 299 300 300 300 301 300 300 300 300 300 301 303 304 305 305 306 306 306 307 307 307 307 307 307 307 308 308 308 308 308 310 310 310 310 309 308 309 310 310 311 311 311 311 313 314 315 315 315 315 318 319 319 318 318 318 318 318 318 318 318 318 318 318 317 316 316 315 314 315 315 315 315 316
297 296 298 300 301 301 301 302 301 298 297 297 297 298 300 301 300 301 302 301 301 301 301 301 303 304 305 305 305 306 306 306 307 307 307 307 307 307 308 308 308 308 307 308 309 309 308 308 309 309 309 310 310 311 311 310 312 314 315 316 317 318 319 320 319 318 317 317 316 317 317 318 318 318 317 317 317 316 315 315 315 315 315 315 315 316 316
297 299 300 301 301 301 301 300 298 297 298 299 300 300 301 301 301 302 303 302 302 303 303 303 304 305 305 306 306 306 306 306 306 307 307 307 307 307 307 307 307 308 307 308 309 308 308 308 308 308 308 310 311 311 310 311 313 315 315 315 316 318 320 320 318 318 318 317 316 316 316 317 317 317 316 316 315 315 315 315 315 315 316 315 315 315 316
300 300 300 300 300 300 300 299 299 299 300 301 301 300 300 301 302 302 302 302 303 304 304 304 305 306 306 306 306 306 306 306 306 307 307 307 307 307 306 307 307 307 306 308 309 308 308 308 308 308 309 311 312 311 311 312 314 315 315 315 315 316 317 318 317 316 316 317 317 317 317 317 317 316 315 314 314 314 315 315 315 316 316 316 316 316 316
299 299 299 299 299 299 299 300 300 300 300 300 300 300 301 301 302 302 302 302 303 304 305 304 305 305 305 305 305 305 306 306 306 306 306 307 307 307 306 307 307 307 307 308 308 308 308 308 307 308 310 312 312 312 312 313 314 315 315 315 315 315 314 315 315 314 313 314 316 317 317 317 317 316 315 314 314 314 315 315 315 315 315 315 315 316 316
297 297 297 298 298 299 300 301 301 301 300 300 300 300 300 301 301 302 302 303 304 304 304 305 304 304 304 304 305 305 306 306 306 307 306 306 307 307 307 307 307 307 307 308 308 308 308 307 308 309 311 312 311 312 313 313 314 315 315 315 316 315 314 313 313 313 314 315 316 316 315 316 317 316 315 315 315 315 315 315 315 315 315 315 315 315 314
298 298 298 298 299 299 300 300 301 301 301 300 300 300 300 301 302 302 303 303 304 304 304 304 304 304 304 304 305 305 305 306 306 306 306 307 307 307 306 307 307 307 307 307 307 307 307 308 309 311 312 312 311 312 313 313 314 314 314 314 316 316 315 315 315 316 316 316 316 315 315 315 316 316 315 314 314 314 315 315 315 315 315 315 314 314 313
299 299 299 299 299 299 299 300 301 301 301 301 301 301 302 302 303 303 303 303 303 303 303 303 303 304 304 304 304 304 305 305 305 306 306 306 306 306 306 307 307 307 307 307 307 307 307 308 310 311 312 311 311 312 312 312 313 314 313 313 315 315 316 316 316 316 316 315 315 315 315 315 315 315 314 314 314 314 315 315 315 314 314 314 314 314 313
299 299 299 299 299 299 299 300 300 301 302 303 303 303 303 304 304 304 303 302 302 303 303 303 303 303 304 304 304 304 305 305 305 305 306 306 306 306 307 308 307 307 307 307 307 307 308 309 310 310 310 310 310 311 311 311 313 313 313 314 314 314 315 316 316 315 315 315 315 314 314 313 314 315 314 314 314 314 315 314 314 313 313 312 312 313 313
298 298 299 299 299 299 299 300 301 302 303 303 303 303 303 303 303 303 302 302 302 302 302 302 303 303 303 303 303 304 304 305 305 305 305 305 305 306 307 307 307 307 307 308 307 308 308 309 310 309 309 309 309 309 309 310 311 312 313 314 314 313 314 315 315 314 314 314 314 313 313 313 314 314 314 314 314 314 314 314 313 313 312 311 312 312 312
298 298 298 299 299 300 300 301 302 302 302 302 302 302 302 302 302 302 302 302 302 302 302 302 302 302 302 303 303 303 304 305 305 305 305 305 305 306 306 307 307 307 307 308 308 308 309 309 309 308 308 308 308 307 308 308 309 311 312 313 313 313 312 313 314 314 313 313 313 313 313 314 314 313 312 312 313 313 313 312 312 311 311 310 310 311 311
298 299 299 299 300 300 301 301 302 302 302 302 302 301 301 301 302 302 301 301 301 301 301 302 302 301 302 302 303 303 304 304 304 304 305 305 305 306 306 307 307 307 307 307 308 308 308 308 308 307 307 307 307 306 306 306 307 309 311 312 313 313 312 312 313 313 313 312 312 313 313 313 312 311 311 311 311 311 311 310 310 310 309 309 309 310 310
298 299 299 299 300 300 301 301 301 301 302 302 302 301 301 301 301 301 301 301 301 301 301 301 301 302 302 302 302 303 303 304 304 304 305 305 305 306 306 307 307 307 307 307 308 308 307 307 307 306 306 306 305 305 304 304 304 306 308 309 311 312 312 312 313 313 312 312 313 312 312 311 310 310 310 310 310 310 310 309 309 308 308 309 309 309 309
298 298 299 300 300 300 301 301 300 301 301 302 302 301 301 301 301 301 300 300 300 300 301 302 302 302 302 302 302 303 303 304 303 304 304 305 305 305 306 306 306 307 306 307 307 306 305 305 304 304 303 303 303 303 303 303 303 304 305 307 309 311 312 312 312 312 312 312 312 312 311 311 311 310 310 310 310 309 309 309 308 308 308 308 308 308 308
299 299 299 300 300 300 300 300 300 300 301 301 301 300 300 300 300 300 300 300 300 300 301 302 302 301 301 302 303 303 303 303 303 304 304 304 304 304 305 306 306 306 306 305 305 305 304 303 302 301 301 301 301 301 302 302 302 302 302 304 306 309 310 310 310 311 312 312 312 313 313 312 311 311 310 310 310 310 309 309 309 308 308 308 308 308 308
Wind_Speed
24 24 24 25 27 28 27 25 24 24 22 20 16 10 7 8 4 2 9 10 3 5 6 5 5 4 8 12 13 13 9 7 8 7 6 5 2 4 6 7 6 5 4 6 7 6 3 4 6 5 6 5 4 12 17 15 14 10 7 8 6 2 2 7 9 10 12 15 16 16 17 17 14 11 13 13 13 14 12 10 9 9 11 10 8 9 5
23 24 24 25 26 27 27 26 24 24 22 19 16 10 8 10 5 3 6 5 1 4 5 5 5 8 13 14 14 12 7 5 6 6 5 4 2 4 5 6 7 5 5 7 7 6 4 3 5 4 4 4 5 13 19 16 12 9 6 6 6 4 5 7 7 9 11 12 12 13 14 13 12 12 14 14 16 18 14 10 10 9 12 12 8 7 7
22 24 24 24 25 27 28 27 25 23 19 16 13 8 9 11 7 3 3 2 2 4 5 6 6 9 13 13 14 13 8 7 5 5 5 3 4 6 6 7 8 8 8 8 8 8 5 4 4 4 2 4 5 10 17 15 11 8 5 4 5 5 4 5 7 9 11 10 10 11 13 12 10 14 18 17 17 19 14 10 10 9 12 13 10 7 7
22 24 24 24 24 26 28 28 27 23 17 14 10 6 8 10 4 0 2 4 5 8 7 5 6 8 10 10 12 12 11 12 6 2 3 4 4 6 8 9 8 7 8 7 6 6 7 6 3 4 3 4 5 9 14 15 14 11 5 6 6 5 4 6 9 7 9 11 11 12 14 13 13 17 21 20 18 19 16 11 10 9 9 10 10 10 9
22 22 24 24 24 25 28 28 27 23 15 11 10 6 7 8 5 5 4 4 6 7 5 4 6 8 8 7 8 12 14 13 8 4 2 8 9 2 5 7 7 6 6 7 7 5 6 7 5 4 4 2 5 9 13 15 13 11 6 9 7 4 5 8 11 10 7 9 12 15 16 17 17 19 21 20 20 20 17 13 12 11 9 9 11 13 11
22 22 23 25 24 25 27 27 28 24 14 13 12 9 6 6 6 6 5 4 5 3 5 8 10 11 10 5 7 12 15 14 11 8 2 9 11 3 2 5 8 8 7 5 7 6 5 5 4 4 5 3 5 7 10 13 13 8 7 9 6 5 6 9 10 10 10 11 12 16 17 17 18 19 20 21 21 21 18 15 15 14 10 8 10 14 14
21 22 23 25 24 23 25 26 28 24 16 15 13 9 7 8 8 6 7 6 9 10 11 11 11 12 10 6 7 11 14 15 14 11 7 2 5 7 4 5 6 8 9 6 7 7 3 2 2 3 4 4 3 6 7 10 13 11 8 8 6 5 5 7 10 10 10 11 8 11 13 16 18 20 20 20 20 19 17 16 16 16 14 10 8 11 13
20 21 22 24 23 23 23 24 27 26 19 15 12 10 10 8 6 8 12 12 13 13 11 9 9 9 7 5 8 12 14 15 15 13 11 10 2 6 5 7 8 8 8 7 8 10 7 4 4 2 3 4 2 3 5 7 12 12 8 6 7 5 4 6 8 8 9 10 8 8 12 15 17 19 20 20 20 18 16 15 14 14 14 12 11 11 9
18 19 21 22 22 22 22 22 25 26 20 14 11 11 10 8 6 9 12 10 9 10 8 7 7 6 6 7 9 12 14 16 17 14 10 10 7 5 9 10 5 9 9 9 10 13 12 10 8 6 5 4 2 2 4 4 8 12 9 6 7 6 4 5 6 6 8 9 9 9 10 12 14 17 20 21 20 17 15 14 13 13 13 14 12 10 7
16 18 19 21 21 21 21 21 23 23 19 14 11 11 10 9 7 7 9 8 9 10 8 7 7 6 7 9 10 13 15 17 16 12 8 9 12 12 13 13 7 4 9 10 12 14 13 12 11 10 10 10 7 7 9 8 5 9 9 6 6 7 5 4 6 6 5 7 9 8 8 10 11 13 16 18 17 16 15 14 15 15 13 11 10 9 8
15 17 18 19 20 20 20 19 20 21 18 13 10 11 11 10 8 9 9 7 9 10 8 6 7 7 10 13 14 14 15 17 15 12 9 11 15 15 15 14 10 4 3 7 9 10 12 13 13 12 14 14 12 11 10 10 8 8 9 7 5 7 6 4 4 5 5 6 7 7 9 10 8 10 14 16 15 15 15 14 14 15 13 10 9 9 10
14 16 17 19 19 19 19 18 17 19 17 13 9 9 10 9 8 9 8 6 8 10 8 7 9 10 12 16 16 15 16 16 16 14 12 12 14 15 15 13 10 8 12 16 14 11 11 13 12 13 15 14 13 13 11 10 10 9 9 8 6 6 7 4 4 4 5 5 6 8 9 7 4 5 12 15 15 15 14 13 14 15 16 15 13 13 13
14 15 16 18 18 18 18 17 16 16 16 14 9 8 9 9 8 9 9 8 8 8 9 12 15 14 15 18 18 18 19 18 17 15 13 12 13 14 13 12 12 14 17 17 13 10 7 7 7 8 10 10 10 11 12 12 12 10 9 8 7 6 5 4 4 4 5 5 6 7 4 3 3 3 7 12 13 13 13 12 14 15 15 15 15 15 15
15 16 16 16 18 18 16 16 15 16 15 14 10 8 9 8 9 10 9 6 8 13 13 11 12 14 17 18 18 17 18 18 16 15 13 11 11 13 14 13 14 17 17 14 9 4 2 3 4 4 5 6 6 8 11 12 13 13 10 7 7 7 4 3 3 3 4 5 6 4 2 4 6 3 3 8 10 11 11 10 11 14 14 14 15 16 15
15 16 16 15 17 18 15 14 15 16 15 12 10 8 9 8 8 8 8 8 10 14 11 7 11 16 17 17 16 13 12 12 13 14 14 12 11 14 15 16 17 18 16 9 4 2 2 3 4 4 5 5 5 6 8 9 10 13 12 8 6 4 3 2 2 4 5 6 5 4 3 4 5 2 2 2 3 5 8 8 8 11 14 15 15 15 15
14 16 16 15 16 17 14 13 15 16 15 12 10 9 9 10 8 7 9 10 8 8 10 14 17 17 16 15 14 12 10 8 10 11 10 11 14 17 18 18 18 17 14 7 2 0 4 5 3 3 4 6 6 6 7 7 8 12 13 10 7 3 1 2 3 5 6 6 4 3 2 1 1 2 1 2 2 2 5 7 7 8 12 17 17 14 13
14 15 15 15 15 14 12 12 14 16 16 13 11 10 10 11 10 8 8 10 10 15 19 18 16 14 12 10 10 12 11 10 10 9 8 11 16 18 21 22 18 15 15 10 2 1 4 4 3 2 4 6 5 6 7 7 8 10 11 10 8 5 1 2 4 6 7 6 2 2 2 2 4 4 2 2 3 5 7 8 4 1 4 12 16 14 13
14 15 15 15 15 14 12 12 13 15 16 14 11 10 11 11 10 8 8 11 12 15 17 13 14 16 13 10 12 14 14 13 10 8 10 11 12 19 25 21 13 13 15 10 4 4 5 3 3 2 2 4 5 7 7 7 8 9 10 8 7 5 1 3 6 6 7 6 1 0 1 2 4 6 2 3 5 7 7 4 1 6 8 6 7 9 10
13 14 15 14 15 14 12 12 14 14 14 13 10 11 11 11 11 10 10 12 12 16 21 20 19 19 16 14 17 17 14 14 12 8 9 7 13 26 26 12 8 13 13 9 5 5 5 4 3 2 1 2 3 5 7 7 7 8 10 9 7 4 2 4 8 6 5 3 0 1 1 2 5 8 3 4 4 5 3 1 5 7 8 7 6 3 2
14 15 15 14 15 16 14 14 14 14 14 12 10 12 12 11 13 13 11 11 15 23 28 22 16 16 16 15 17 16 14 15 12 8 8 8 16 24 17 6 10 14 10 8 8 6 5 5 5 4 2 1 1 1 6 8 8 8 10 9 6 5 4 5 6 4 4 3 2 0 2 2 7 8 4 2 1 1 2 2 4 7 9 7 5 2 1
15 15 15 15 16 16 16 16 15 14 13 11 10 12 12 11 13 14 11 11 15 21 21 17 15 20 21 20 21 20 17 17 16 12 13 15 16 14 7 6 12 10 5 6 6 4 5 6 4 3 3 2 3 2 3 6 8 8 6 5 5 7 6 4 3 3 3 2 1 0 2 4 7 6 2 3 4 2 2 2 3 7 9 7 4 4 2
16 16 16 16 16 17 16 16 15 14 13 11 10 12 11 10 11 14 13 13 16 21 24 27 29 29 23 17 16 16 15 17 18 16 16 18 16 12 11 12 11 7 6 7 5 4 6 5 4 5 5 3 3 4 4 4 6 7 5 3 3 4 2 0 1 3 4 3 2 3 4 5 5 5 1 4 4 2 2 4 6 8 9 6 4 5 5
16 17 16 16 17 17 17 16 16 16 15 12 9 10 12 12 11 12 13 14 19 25 28 29 29 24 17 10 9 11 13 15 16 15 15 15 14 14 13 10 8 7 6 6 5 6 7 5 5 5 4 4 4 4 5 5 3 3 5 6 4 4 1 1 2 3 4 6 9 9 7 5 3 2 2 2 4 3 4 6 7 9 10 8 8 8 8
17 17 17 17 16 16 16 16 16 18 17 12 9 11 13 13 11 11 12 14 18 22 21 18 17 16 12 9 9 11 13 15 16 16 14 13 12 12 9 7 10 9 8 7 6 7 7 6 5 3 4 5 4 4 4 1 1 3 4 7 7 7 4 2 4 3 2 4 6 6 6 4 0 2 1 2 5 5 5 6 8 11 11 11 11 11 10
18 17 17 16 15 15 16 17 18 19 17 11 9 11 13 12 10 10 12 13 16 16 13 14 16 12 10 13 15 14 15 16 16 16 16 16 16 15 12 11 12 11 10 9 7 6 6 5 5 5 6 5 2 4 3 1 2 6 4 3 4 3 2 3 7 6 5 5 5 3 0 4 4 1 2 4 6 6 6 6 8 10 11 12 14 14 13
18 17 16 14 14 15 17 20 20 18 15 12 10 11 12 12 10 9 10 13 16 14 11 13 16 14 15 20 20 16 14 13 13 15 18 19 18 18 19 19 16 13 13 11 9 8 7 6 5 5 5 3 4 5 2 3 2 7 5 4 4 1 0 5 6 4 7 8 4 0 3 4 1 0 3 5 5 4 4 5 8 9 9 9 12 14 14
17 16 14 14 14 16 19 21 21 17 14 13 12 11 12 12 10 9 10 10 11 10 8 10 18 24 24 20 12 9 9 10 11 13 17 19 20 20 20 19 17 15 14 12 10 9 8 7 6 7 7 5 7 5 3 1 4 6 3 4 6 4 3 6 6 4 3 2 4 6 2 2 2 1 5 6 3 3 5 6 9 9 8 7 9 12 13
16 14 13 14 15 18 21 22 20 16 14 13 12 12 12 11 8 9 10 9 8 10 12 18 26 29 24 15 8 9 10 11 11 13 15 17 19 20 20 19 17 14 13 11 9 8 7 5 7 9 8 5 5 4 2 3 4 4 2 6 10 6 1 2 6 6 4 3 4 2 3 3 2 1 3 5 4 4 7 9 9 9 8 7 8 10 11
15 14 14 15 16 19 21 20 17 15 13 11 10 12 11 8 6 7 7 6 7 10 16 21 22 19 17 16 13 11 10 10 11 14 15 16 17 19 20 19 17 15 13 12 10 8 8 8 10 11 7 5 5 5 4 3 4 3 3 6 8 4 2 3 6 7 7 6 5 3 4 4 1 2 4 6 6 6 7 9 8 6 5 6 10 11 11
15 15 15 16 18 19 20 18 15 14 11 8 8 10 9 6 7 8 6 4 4 7 12 14 12 14 19 19 14 11 11 12 12 13 15 15 17 17 17 17 17 15 13 12 10 9 9 9 11 12 9 5 5 6 5 4 3 3 7 10 9 5 3 2 4 6 7 6 6 3 4 4 3 5 7 9 8 7 7 7 7 7 7 8 10 11 10
15 15 15 16 18 18 17 15 14 12 9 6 5 8 7 3 3 6 6 4 3 6 9 11 13 18 19 16 12 12 14 14 12 13 14 13 14 14 14 14 15 14 13 13 12 11 10 9 9 11 9 4 4 6 6 6 4 1 5 11 12 10 5 0 2 6 8 6 3 2 3 3 5 4 3 8 9 7 6 7 8 8 8 9 11 10 10
15 15 15 16 18 17 15 14 14 12 9 8 10 11 9 7 8 10 9 6 5 6 7 8 11 11 9 10 13 13 12 13 12 11 11 10 9 9 10 12 12 12 12 12 10 9 10 9 10 11 8 3 3 6 6 6 5 3 5 10 11 9 5 3 4 3 4 3 3 1 0 3 5 4 3 5 6 6 6 8 8 7 5 6 9 9 9
16 15 14 16 17 16 13 13 14 13 12 14 14 13 12 12 16 18 14 8 5 6 6 6 7 5 6 14 16 9 8 12 10 7 7 6 6 7 8 10 10 10 11 10 8 8 8 8 8 9 7 5 5 6 6 6 7 7 6 8 7 6 5 2 2 1 1 4 4 1 2 1 2 3 2 2 3 4 5 6 8 10 7 5 7 7 5
16 15 15 16 15 13 12 13 14 13 13 11 10 11 12 12 13 15 11 6 5 7 5 4 5 5 8 14 11 4 9 13 9 5 5 4 4 7 9 9 8 8 10 11 10 9 8 7 7 8 7 6 6 5 5 7 9 9 8 6 4 5 6 5 3 3 2 3 3 2 0 3 4 2 1 2 2 3 4 4 5 8 8 6 6 7 5
16 14 14 14 13 12 12 12 11 9 8 6 7 11 14 11 7 7 7 6 5 6 4 4 6 6 7 9 6 6 12 14 9 6 8 7 6 9 10 7 6 6 8 9 9 8 7 6 6 6 5 4 4 4 6 8 9 10 9 7 6 7 8 7 5 3 2 4 5 4 4 3 3 3 2 3 2 3 5 5 3 2 4 6 7 8 7
14 13 12 12 11 11 10 8 5 4 5 7 9 10 10 7 4 4 5 6 7 8 7 7 6 6 6 6 6 8 12 12 9 9 10 8 6 7 8 8 6 5 6 6 7 8 5 3 4 6 5 4 4 5 6 8 10 11 11 11 9 9 10 8 6 6 4 5 7 5 4 5 3 2 1 1 1 3 5 4 3 2 3 6 7 7 7
12 11 10 9 8 9 8 5 5 6 8 11 11 8 6 4 4 4 5 8 9 10 9 7 7 7 7 7 7 10 10 9 9 10 7 6 6 6 7 8 5 4 5 6 7 6 3 2 4 7 6 5 7 8 8 10 11 11 11 11 10 10 11 8 3 3 4 1 5 7 6 6 5 4 3 3 1 1 2 2 3 3 4 5 6 6 6
11 10 8 5 6 8 7 6 7 7 7 8 9 8 5 4 4 4 6 6 7 8 9 8 8 10 9 7 8 10 10 8 9 9 5 5 6 5 6 6 4 2 5 6 3 3 3 4 5 6 6 8 9 7 6 8 9 8 8 9 9 9 8 4 1 2 1 3 4 7 9 10 9 7 5 5 5 4 2 1 1 1 2 3 4 5 5
9 9 7 6 7 7 6 6 8 8 7 7 7 6 6 6 4 4 6 6 5 6 8 9 10 11 9 7 7 9 9 7 8 7 5 5 5 4 4 4 2 2 6 5 1 2 4 6 4 5 6 6 2 3 5 5 6 6 7 7 7 5 2 2 2 3 5 2 5 8 5 4 6 7 6 5 5 5 4 3 2 1 1 2 4 5 6
7 6 6 7 7 7 8 10 10 9 7 5 5 5 6 6 5 4 4 4 5 6 7 7 10 11 9 7 7 7 6 6 6 7 7 6 5 4 5 5 2 2 6 5 1 1 5 6 4 5 4 1 5 7 6 6 5 6 7 7 6 3 3 6 5 3 4 3 3 6 5 2 1 3 3 2 3 4 4 3 2 2 1 3 4 5 6
5 6 6 8 8 8 8 9 7 5 5 6 6 4 4 5 6 5 4 4 4 4 6 5 8 7 5 5 7 7 6 5 7 9 8 6 4 4 5 5 4 4 5 4 1 1 4 5 5 5 1 6 9 8 8 7 6 6 7 7 5 2 5 6 4 3 2 2 3 4 5 4 2 2 2 2 2 3 4 4 3 1 1 2 3 4 5
8 9 8 8 8 7 6 5 5 5 5 5 4 4 4 4 5 5 5 5 4 1 4 4 6 6 5 6 8 9 7 6 7 8 6 4 4 5 5 4 4 4 5 4 3 3 4 5 6 3 4 10 12 12 10 8 7 7 7 7 5 4 7 7 5 3 4 5 5 5 5 5 5 3 2 2 2 2 4 4 3 2 1 1 3 3 4
6 5 6 7 5 4 4 5 6 6 4 3 3 3 3 3 4 4 5 4 3 2 1 2 4 7 6 5 7 9 8 5 5 6 6 4 5 5 4 4 4 5 5 5 3 4 6 6 4 2 8 13 14 15 13 10 9 8 7 6 5 5 8 9 8 7 7 6 6 6 6 7 6 3 2 2 2 2 4 4 3 2 1 1 2 3 3
3 3 4 5 3 3 4 4 5 5 3 3 3 4 4 4 5 4 2 1 2 2 2 4 7 7 6 6 9 9 7 3 3 4 5 5 4 4 4 4 4 4 5 5 5 6 6 3 2 7 13 15 16 17 17 14 11 9 8 7 5 5 7 8 8 7 7 6 6 7 8 7 6 4 3 3 3 4 4 4 4 3 1 1 2 2 2
3 5 5 4 3 3 3 2 4 4 4 4 4 5 4 4 4 2 2 3 3 6 6 7 9 9 9 10 9 7 5 4 4 4 4 4 4 4 4 4 4 4 5 5 6 6 4 2 5 10 15 17 18 18 19 17 13 11 10 8 6 4 5 5 6 6 7 7 8 9 8 7 5 4 3 3 4 5 5 4 4 3 1 2 2 2 2
5 6 4 3 3 4 4 3 3 3 4 4 5 5 5 5 5 4 4 4 6 9 9 9 10 10 11 11 9 7 8 8 6 4 5 5 4 4 4 4 4 4 4 5 6 4 2 4 7 11 16 19 20 20 20 18 15 13 11 10 8 6 4 4 5 6 7 8 7 7 6 5 4 4 4 5 4 5 5 4 3 1 2 3 2 2 3
6 5 3 3 3 3 5 5 4 4 4 5 6 6 5 5 7 8 6 6 8 9 9 10 11 11 11 10 9 8 9 7 5 5 5 4 3 4 4 3 4 4 4 5 5 3 4 6 10 14 18 19 20 21 21 19 17 15 14 12 10 8 7 6 5 5 5 5 5 5 4 4 5 5 5 5 4 4 4 3 1 1 2 2 2 2 3
5 4 3 3 3 2 4 5 6 6 7 6 6 6 7 7 8 8 7 6 7 8 9 10 10 9 9 8 7 7 7 6 5 5 5 4 3 3 3 3 4 3 2 3 3 3 5 8 13 16 18 19 19 21 21 20 19 18 15 12 10 9 9 8 7 5 4 4 5 5 5 5 5 5 4 4 4 4 3 1 0 1 2 2 2 3 3
6 4 3 4 3 4 6 6 6 6 7 6 5 6 7 8 8 7 6 7 8 9 10 10 9 7 7 7 6 6 6 5 4 3 3 3 3 3 3 4 4 2 2 4 4 6 9 12 15 16 17 17 18 19 20 20 20 18 16 14 11 9 9 9 7 5 5 5 5 6 6 5 4 4 3 4 4 3 2 1 1 1 2 3 3 2 2
7 5 5 5 5 5 6 6 5 6 6 5 5 5 6 6 7 6 6 6 8 9 9 9 8 6 5 6 5 5 5 4 3 4 4 4 3 3 3 3 2 2 4 5 8 10 13 14 15 15 16 17 18 18 20 21 20 18 16 16 13 9 8 9 7 4 4 5 5 5 5 3 3 3 2 2 2 3 3 1 1 1 2 3 3 3 2
5 6 7 8 7 6 5 4 5 5 5 5 6 6 6 7 8 7 6 7 8 8 7 6 5 4 4 5 5 4 4 3 3 5 5 3 2 2 2 2 3 4 6 8 11 13 14 13 13 14 15 17 18 18 19 19 19 18 16 15 12 10 8 7 6 6 5 5 6 5 3 2 2 3 2 2 2 2 2 1 0 0 1 2 3 3 3
6 5 5 6 8 8 8 8 8 7 7 7 7 7 7 7 7 7 7 8 8 7 6 6 5 4 4 4 4 4 5 4 4 5 4 2 2 3 3 4 4 6 9 11 12 13 12 11 12 13 13 15 17 18 17 17 18 18 17 13 9 8 10 10 8 6 5 2 2 1 0 1 2 2 1 1 1 1 1 1 1 1 0 1 2 3 4
Wind_Direction
358 356 354 355 355 359 9 8 358 352 349 349 352 346 315 313 333 290 308 332 334 260 275 273 256 282 320 321 314 310 304 282 289 309 302 285 226 225 263 275 278 293 306 316 317 300 276 222 225 222 201 214 195 178 188 199 196 194 208 202 178 122 206 203 182 176 186 183 185 202 205 196 202 217 212 200 196 202 212 209 197 208 217 208 203 203 172
358 357 355 356 356 358 6 10 5 357 351 350 350 347 326 314 303 258 292 326 313 258 297 318 302 316 328 327 324 322 321 300 287 282 285 301 279 250 264 277 277 286 290 285 286 287 274 233 240 235 188 161 151 176 191 197 190 186 207 198 173 178 202 199 183 169 177 181 180 196 208 202 198 207 214 214 204 201 212 219 208 211 217 216 218 203 165
359 358 356 356 357 357 2 10 10 3 358 354 347 336 314 297 273 221 231 233 239 265 296 312 298 313 321 318 325 331 338 345 322 258 249 264 276 286 291 286 284 284 280 272 269 269 252 227 261 273 204 129 131 179 192 199 193 183 214 226 193 204 211 202 197 174 170 181 181 186 196 199 204 205 208 215 211 203 206 215 212 208 209 216 224 206 159
360 358 357 357 357 358 1 7 10 9 6 5 1 345 315 306 303 31 209 204 229 250 264 286 285 311 320 314 328 337 335 340 345 271 244 202 212 282 297 297 293 277 272 284 284 262 236 223 245 259 219 156 150 177 189 204 196 167 186 249 221 216 230 223 229 213 182 181 185 190 195 199 205 203 202 207 212 211 209 208 215 212 203 211 224 214 178
359 359 359 359 357 359 0 4 11 13 14 22 15 336 299 302 326 1 344 271 247 237 244 307 308 309 314 311 319 322 324 333 347 347 280 175 173 243 302 290 290 290 300 311 302 268 227 222 233 251 256 191 147 170 188 208 201 160 175 232 228 237 229 219 241 252 226 199 191 188 194 204 208 204 202 204 210 216 216 210 214 216 211 209 210 216 213
357 359 1 0 359 360 359 3 10 12 24 41 17 335 318 331 328 357 7 303 280 296 321 330 322 304 293 281 289 305 321 334 342 347 351 167 170 180 295 268 271 292 307 304 293 283 240 227 236 241 252 229 159 172 190 206 208 196 206 214 214 255 238 210 227 243 240 233 207 183 187 203 208 207 207 205 206 212 215 216 216 214 219 217 199 204 219
355 359 1 0 360 360 359 2 8 12 30 46 26 1 8 356 328 351 12 318 290 295 301 308 311 296 279 267 292 316 328 334 336 338 338 302 185 182 208 249 249 277 293 283 276 280 265 247 255 241 269 272 204 187 192 196 199 206 220 210 206 248 249 218 221 223 229 239 215 179 190 204 206 208 210 208 208 210 213 220 223 218 221 232 234 219 212
354 358 0 0 360 360 359 2 6 11 27 44 37 27 21 5 338 334 334 313 288 282 285 292 300 302 304 314 326 331 331 334 338 334 329 335 324 176 230 258 215 217 263 269 260 267 281 295 280 282 313 309 275 202 194 188 189 197 215 214 202 220 246 238 231 222 224 230 217 197 205 208 206 207 208 208 211 212 211 216 222 221 220 228 250 253 220
351 356 359 1 2 0 1 4 6 12 25 33 29 29 20 1 335 316 316 311 295 292 299 302 300 317 347 344 329 327 329 332 333 328 328 333 329 301 293 288 224 188 218 238 246 259 271 270 264 274 272 262 289 273 249 223 190 192 206 210 197 211 255 255 233 224 224 224 224 225 222 218 215 212 208 206 207 209 208 209 211 214 218 221 230 244 232
348 352 356 1 3 2 2 5 7 14 26 25 16 19 9 350 339 326 316 299 286 293 302 303 306 329 347 335 321 317 321 326 327 327 328 321 320 321 312 311 318 202 205 226 237 243 255 260 263 274 265 252 254 255 262 275 238 197 202 208 203 211 234 250 230 226 228 223 225 235 232 226 225 219 214 211 210 209 208 208 210 212 218 225 223 225 236
344 347 352 358 2 3 4 5 6 12 21 20 8 6 1 353 345 334 320 295 292 306 315 318 330 339 329 322 319 315 316 322 325 324 316 311 318 325 322 319 320 310 302 303 277 254 254 256 258 261 255 247 242 235 243 260 253 221 207 203 208 217 224 249 254 238 239 237 232 230 222 220 220 211 210 214 214 212 209 208 209 210 215 228 235 233 236
343 344 348 354 359 2 3 3 2 6 13 15 5 356 358 357 348 337 327 309 304 312 320 322 320 321 322 322 321 317 316 320 323 320 311 308 314 320 324 323 318 323 331 326 320 309 280 254 243 249 247 237 232 230 228 227 227 227 219 204 200 215 221 239 260 248 248 252 243 230 221 220 225 206 203 208 214 214 213 212 209 209 214 222 229 235 235
338 340 344 350 354 357 358 358 358 358 5 14 10 349 350 356 351 340 326 304 294 307 321 314 306 314 331 330 320 315 316 320 325 324 314 304 310 320 326 322 317 322 325 322 329 342 313 257 229 231 230 219 218 223 222 215 207 210 218 208 198 209 221 237 254 253 256 256 238 227 212 173 172 202 202 201 206 210 211 213 213 212 215 220 225 234 238
333 338 343 346 348 349 349 351 354 352 356 11 13 349 344 353 350 340 328 309 299 302 301 298 308 327 334 325 315 314 319 326 333 332 323 314 318 326 328 327 323 321 320 318 320 339 334 264 234 202 189 191 204 213 214 211 202 200 207 203 191 202 224 253 269 269 271 266 237 213 151 155 175 187 204 198 203 207 206 212 218 214 215 220 224 232 236
331 336 342 344 342 344 345 345 349 348 349 3 10 348 330 333 345 341 324 312 305 298 301 329 340 333 324 314 314 318 321 330 334 328 324 327 330 330 332 337 334 324 318 319 316 301 288 253 210 179 169 181 192 197 199 198 192 198 207 206 193 205 238 259 281 292 292 286 257 217 192 185 175 120 112 204 243 227 208 215 225 214 213 219 223 228 230
328 332 338 342 340 342 345 341 339 340 341 349 357 346 322 316 332 340 318 309 298 288 317 339 332 318 308 306 313 324 329 332 329 324 327 333 332 333 339 341 338 330 327 332 59 358 285 260 216 190 183 181 180 176 180 184 180 186 198 209 215 221 245 268 280 287 284 287 292 269 231 189 72 54 121 206 264 223 205 216 219 208 211 216 221 229 229
323 326 331 337 339 341 342 337 333 333 334 336 340 337 320 305 312 330 319 304 285 276 291 312 319 313 312 313 319 328 328 318 315 320 321 321 327 336 339 337 338 344 343 340 3 344 304 290 283 247 177 163 171 169 170 181 175 169 178 199 218 219 206 277 266 271 278 279 297 306 291 24 10 329 282 205 180 185 202 207 192 4 261 228 221 224 222
316 320 326 333 339 339 336 332 331 328 328 330 329 324 317 304 304 319 316 303 291 278 282 306 320 310 305 308 308 310 312 307 309 318 310 308 333 340 332 329 340 355 354 351 341 336 342 342 303 269 164 149 173 171 166 173 175 174 178 190 210 209 185 273 260 267 287 285 255 274 290 33 350 311 294 143 172 187 193 200 348 354 336 300 251 232 221
311 313 320 329 334 335 331 327 328 324 322 327 325 317 316 305 297 304 305 297 288 278 283 298 304 295 290 294 292 291 297 296 292 302 306 315 348 337 325 324 3 358 352 352 345 345 353 354 342 317 257 174 168 166 168 171 172 176 183 192 206 191 159 259 257 256 273 274 48 343 260 80 356 332 4 123 185 194 157 347 333 342 343 323 294 277 246
309 310 314 320 327 330 327 323 323 321 317 320 318 313 311 300 294 298 297 290 287 286 290 295 294 288 291 292 287 290 299 296 292 305 310 315 337 334 327 351 8 354 354 355 350 356 353 343 350 344 309 283 352 192 178 177 180 181 188 200 205 176 179 249 261 259 256 230 132 272 240 61 8 338 344 68 310 332 43 348 341 7 359 325 296 337 35
311 311 311 314 321 325 323 320 321 320 315 312 311 311 309 304 305 306 299 289 285 285 291 299 297 293 294 287 279 276 275 275 281 298 303 302 317 327 325 334 340 343 2 351 337 347 349 339 339 336 323 303 296 278 188 181 184 177 179 205 205 192 204 251 286 294 288 283 89 198 277 343 352 330 331 58 45 37 37 24 38 34 14 346 335 16 32
312 312 310 310 316 322 322 320 324 325 319 312 311 310 304 300 305 305 297 288 277 271 281 293 296 296 298 290 275 269 267 268 270 276 287 294 301 299 289 305 330 354 4 344 328 334 347 338 320 326 329 320 321 324 292 238 191 161 152 169 203 215 222 65 248 268 302 312 280 264 267 284 311 309 272 106 100 109 78 64 62 55 43 26 14 34 57
308 310 310 310 314 321 324 323 324 324 320 313 305 302 298 295 295 293 291 289 284 282 287 290 290 293 299 299 291 294 296 287 275 266 265 275 290 290 280 297 340 355 350 352 343 330 335 330 316 322 319 314 335 320 265 235 192 171 184 185 213 251 237 129 213 265 310 285 255 249 250 242 237 266 261 117 100 80 71 69 59 56 56 48 39 49 63
304 307 309 311 315 320 322 320 316 314 313 310 302 297 297 296 298 303 302 298 297 300 301 293 286 287 292 300 303 296 288 284 284 280 257 243 260 277 285 332 355 340 332 351 337 314 322 322 306 303 297 293 310 310 280 232 14 308 226 192 205 213 203 243 249 228 261 273 253 256 278 295 274 173 183 73 61 45 47 61 56 49 47 45 45 52 60
302 305 308 313 314 313 313 314 312 309 308 307 304 302 299 297 299 304 301 297 301 306 305 298 295 293 296 301 296 285 277 274 274 269 253 240 243 252 270 310 328 316 314 321 309 304 317 302 286 300 298 286 306 330 332 55 332 303 281 216 216 185 146 258 246 233 246 245 214 187 222 351 355 320 137 66 44 26 23 45 55 47 40 40 44 47 49
301 304 306 310 311 310 314 319 318 313 307 304 303 300 295 292 289 285 287 294 296 288 273 280 294 302 307 305 297 286 281 271 255 249 248 249 250 252 264 281 291 293 295 290 281 290 293 278 283 299 288 303 346 325 283 150 251 280 275 260 269 315 232 254 252 265 274 264 260 107 132 145 177 357 63 47 28 13 15 38 50 41 29 33 43 44 43
299 302 304 309 313 315 317 319 317 310 305 307 306 295 287 285 284 281 281 285 289 281 268 281 298 307 314 315 308 298 288 270 257 253 249 248 249 250 256 267 275 282 284 274 265 268 266 267 283 271 267 314 336 300 257 154 280 277 278 281 277 261 231 256 263 258 251 279 4 6 354 187 190 55 60 56 31 10 27 42 46 36 17 15 39 47 45
295 298 305 312 316 317 317 316 311 303 304 310 304 294 294 297 293 282 269 256 259 274 286 294 298 304 314 320 310 300 293 277 266 263 256 252 250 246 247 255 261 268 273 269 265 266 260 270 279 266 271 324 329 283 305 1 302 280 274 275 282 296 359 275 273 281 308 4 37 10 280 269 249 177 107 91 77 52 51 50 44 34 18 16 42 51 47
291 298 308 314 316 316 315 311 303 297 307 320 314 306 307 300 277 267 255 239 249 273 290 297 295 296 306 310 303 298 296 286 276 270 264 260 253 245 243 246 249 255 263 265 266 271 272 276 281 280 290 329 318 296 312 309 270 276 280 264 270 298 350 299 288 296 307 328 357 351 284 262 205 100 69 65 66 68 72 70 62 55 44 42 53 54 50
289 299 309 313 315 314 311 306 297 295 309 331 330 316 303 264 249 267 277 270 272 286 296 300 296 294 303 308 307 307 305 297 287 279 271 263 257 250 243 240 241 245 253 255 255 266 280 282 283 285 286 285 287 296 299 282 270 323 328 314 304 293 272 278 306 301 296 310 334 316 246 214 135 80 55 54 61 66 67 66 63 61 59 59 60 56 51
289 299 306 310 312 312 306 297 290 292 306 320 308 297 297 280 261 278 287 294 304 297 292 289 288 292 300 304 303 305 309 306 295 282 271 262 258 251 240 236 235 233 239 249 254 260 270 276 281 289 291 283 283 295 294 293 301 290 279 289 291 286 276 78 25 322 309 312 313 238 199 133 124 137 93 67 74 78 68 56 45 39 45 55 57 53 50
288 296 303 308 310 308 299 289 287 289 289 276 260 260 270 270 256 260 275 295 308 295 290 295 296 293 300 311 309 308 312 310 296 277 263 250 246 244 232 229 234 232 234 249 260 256 256 259 269 284 292 272 265 290 286 288 310 311 241 248 260 275 298 48 66 352 327 9 57 89 87 71 94 127 109 78 85 83 63 52 37 25 36 65 62 51 45
287 294 301 305 306 303 293 285 285 284 279 276 275 276 274 258 250 257 271 287 297 286 283 295 300 289 298 307 308 314 330 320 301 275 262 243 228 240 235 226 237 241 230 233 251 258 258 260 266 277 280 254 254 282 288 286 299 306 287 271 274 294 318 352 100 118 26 44 50 14 262 315 52 79 75 79 101 90 73 60 40 25 22 49 68 62 54
287 294 300 304 302 296 288 286 287 288 290 292 290 289 285 269 253 251 250 243 266 278 265 259 276 288 303 303 303 7 7 333 309 289 297 272 240 269 263 232 229 237 223 224 245 259 264 270 271 272 276 265 259 272 283 286 291 294 295 302 324 333 321 300 230 183 133 104 107 123 143 318 319 329 10 3 31 72 70 59 44 26 7 9 39 48 47
285 294 300 300 295 287 288 293 291 285 287 283 264 268 277 277 257 230 215 210 247 270 259 243 263 290 313 307 311 9 355 328 308 303 307 288 264 276 275 251 233 231 219 224 246 258 261 268 273 275 276 271 267 269 274 284 299 311 317 326 338 332 320 310 286 262 200 145 146 154 163 194 260 301 344 350 351 26 34 31 36 4 335 352 18 27 28
288 297 296 294 291 288 294 306 303 267 252 247 252 268 277 269 247 236 236 239 251 266 281 282 272 284 307 303 310 337 334 322 318 319 304 285 272 268 264 263 261 237 215 225 246 255 251 249 271 278 273 264 266 273 281 295 311 320 322 324 328 321 314 309 294 277 249 155 145 158 189 206 218 220 184 177 351 357 360 3 8 1 2 14 18 16 17
290 293 291 293 291 281 278 273 255 243 235 235 251 283 300 274 254 257 256 256 253 250 258 270 268 274 288 295 309 321 324 328 332 323 303 298 305 277 253 259 264 237 231 244 246 244 234 216 259 273 273 271 277 280 289 305 315 321 321 320 319 311 305 302 277 266 285 233 161 172 199 224 221 193 170 168 173 307 336 11 36 32 28 28 19 9 8
285 284 288 295 280 266 258 238 225 232 240 245 263 289 289 253 251 249 234 240 247 235 233 248 262 265 269 276 292 305 316 328 323 312 312 341 330 284 250 257 265 257 266 264 234 203 220 225 243 263 263 263 272 286 308 317 320 326 327 323 318 309 301 297 163 166 261 302 270 222 204 198 189 177 177 190 186 178 175 150 111 58 35 33 20 6 4
279 278 277 273 266 266 266 251 244 262 287 285 274 267 242 220 234 239 206 197 219 228 224 233 246 252 260 277 294 304 313 316 307 307 331 346 326 297 285 287 270 251 273 272 181 154 249 247 238 251 256 254 278 26 18 344 329 337 337 332 331 321 281 144 119 143 144 98 322 297 262 190 156 158 171 179 168 161 171 175 158 139 76 41 26 13 5
272 271 266 263 266 275 280 273 270 281 292 268 239 242 239 222 223 227 199 200 224 217 205 228 250 249 248 269 291 302 305 299 299 312 323 315 298 300 307 301 285 264 276 272 176 170 269 271 259 256 263 19 51 37 17 359 353 350 338 331 334 326 175 155 148 156 144 100 351 317 312 338 108 157 173 164 154 172 194 192 168 155 73 34 29 18 6
244 239 241 252 262 272 280 278 272 260 246 235 230 241 243 228 229 235 238 255 256 201 185 235 271 263 236 257 287 299 305 306 302 299 296 293 289 284 283 288 292 280 272 273 263 255 269 271 267 266 337 52 40 21 13 10 0 348 334 325 321 271 196 186 189 216 254 304 319 319 321 312 267 221 206 200 196 203 204 189 176 173 75 47 34 19 11
225 228 242 261 273 279 278 264 231 214 224 235 236 237 236 233 238 235 227 247 288 276 176 216 281 302 301 296 296 297 303 315 306 287 274 283 298 290 279 282 282 264 261 281 305 281 260 256 256 266 47 45 26 10 9 4 349 343 343 332 312 237 193 185 189 222 257 276 299 324 322 292 269 259 245 230 232 218 193 177 173 178 139 56 29 15 16
243 256 284 297 290 266 248 233 211 202 215 227 220 232 241 228 228 238 226 221 252 276 210 221 294 306 306 299 293 290 292 300 295 280 275 287 301 296 281 266 260 264 283 296 283 255 253 254 258 356 34 31 14 360 357 353 342 337 339 333 309 255 214 201 204 223 245 265 286 297 281 262 252 245 231 236 233 201 180 172 170 177 177 23 6 2 10
269 271 287 291 263 216 214 214 193 186 210 229 213 225 237 218 219 245 255 183 201 266 309 318 310 306 305 307 304 299 291 274 257 269 280 289 293 285 269 264 272 295 305 294 260 247 253 260 24 26 22 18 7 354 349 347 340 331 327 327 317 279 248 237 237 244 251 252 251 248 244 240 234 229 230 228 208 191 182 172 164 161 147 350 332 325 333
230 229 229 242 235 204 196 199 188 198 229 238 221 231 255 259 251 260 54 54 323 292 296 306 304 300 301 303 299 288 271 264 265 270 281 287 288 281 273 278 294 303 297 277 258 254 264 346 21 12 7 5 359 351 347 345 341 333 323 315 307 286 258 241 233 231 227 222 219 220 221 225 229 224 209 185 174 173 175 171 165 168 255 314 312 300 296
227 234 228 240 242 216 209 218 212 214 232 238 237 250 272 293 303 323 15 5 307 290 293 303 302 296 296 298 292 275 270 275 279 281 282 281 279 283 289 291 289 284 274 265 263 269 332 15 5 358 358 356 352 348 346 344 342 338 329 319 308 291 261 231 214 211 211 209 211 217 223 224 214 188 165 156 156 161 164 166 167 206 279 293 299 284 273
229 234 238 254 250 218 214 228 243 261 273 271 268 273 288 302 298 294 298 301 296 294 298 300 295 289 288 289 286 276 271 271 274 283 285 280 274 283 293 288 271 264 268 274 280 310 11 11 1 358 356 353 351 349 346 345 345 343 335 324 313 297 276 250 228 221 222 219 219 223 218 197 177 161 149 146 149 156 162 167 171 295 294 286 280 270 270
221 220 225 241 241 219 224 237 251 263 263 259 262 274 282 282 279 280 287 296 297 295 295 295 296 297 290 280 274 272 272 271 271 274 273 268 269 276 274 259 251 257 298 325 334 2 10 3 0 358 355 352 352 351 348 347 347 346 341 332 318 304 291 272 246 226 223 231 225 210 190 171 163 159 156 160 168 173 176 175 107 13 336 313 297 277 267
223 230 238 248 259 261 257 261 274 273 257 243 248 265 271 272 275 286 299 300 292 291 294 293 293 294 292 284 276 270 267 266 269 270 263 256 257 256 255 260 267 300 10 1 351 356 358 355 354 354 353 354 355 354 351 350 349 349 348 341 326 307 297 293 276 234 216 229 217 187 171 165 160 162 178 191 187 174 168 192 240 5 12 358 347 327 283
223 236 244 245 253 259 251 249 263 270 257 242 245 259 273 284 289 295 305 305 299 297 293 282 267 264 280 287 281 271 272 276 275 268 264 263 262 261 267 280 312 3 1 344 342 349 352 351 348 347 351 355 355 353 353 353 351 350 351 349 339 320 303 301 296 263 231 224 198 168 165 181 186 183 188 180 146 133 138 167 254 12 33 14 360 350 329
217 234 242 242 246 259 265 265 273 278 274 270 274 281 288 290 289 293 306 310 300 290 283 275 260 255 269 272 267 276 300 311 286 266 269 282 302 304 312 347 15 360 341 338 341 344 346 348 349 348 348 351 353 352 353 355 354 353 354 356 357 357 350 331 309 289 270 230 188 176 188 192 149 134 122 101 107 132 151 165 214 315 352 355 355 356 347
212 230 248 247 244 250 260 268 272 272 271 273 280 287 287 285 286 292 299 297 286 278 285 295 290 272 269 280 286 290 293 291 281 276 285 333 10 349 345 359 360 350 343 342 341 341 341 346 351 350 349 350 352 353 354 357 0 2 3 4 9 22 28 28 16 349 334 353 113 126 344 64 102 116 126 111 100 162 209 228 229 206 287 344 356 2 357